Время (UTC), дата Ветер
(°,м/с) 
Видим.   Явления Облачность Т
(°С)
Тd
(°С)
f(%) Тe
(°С)
Pmin
(гПа)
dP
(гПа)
Po
(мм)
O2
(г/м3)
Тmin Tmax R s Состояние
почвы
00 01.12.11 060 (СВ) 10 км  слаб. снег  10/10 600 м 
[Sc]
-4.4 -5.6 91 -4  1016.1  0.5  751  308           
03 01.12.11 050 (СВ) 10 км  в посл. час снег  10/10 600 м 
[Sc]
-5.4 -6.4 93 -5  1016.7  0.5  751  309           
06 01.12.11 040 (СВ) 10 км    10/10 300 м 
[Sc]
-5.6 -7 90 -7  1017.9  1.2  752  310  -5.6    0.2     
09 01.12.11 010 (С) 10 км    10/10 300 м 
[Sc]
-4.8 -6.1 91 -6  1018.4  0.6  752  309           
12 01.12.11 360 (С) 10 км    10/10 300 м 
[Sc]
-4.3 -5.9 89 -6  1018.6  0.1  752  309           
15 01.12.11 030 (СВ) 10 км  слаб. снег  10/10 300 м 
[Sc]
-4.2 -5.8 89 -4  1018.7  0.2  753  309    -4       
18 01.12.11 тихо ()   10 км  слаб. снег  10/10 600 м 
[Sc]
-4.4 -6 89 -4  1020.5  1.8  754  309    -4  0.0     
21 01.12.11 тихо ()   10 км  слаб. снег  10/10 600 м 
[Sc]
-4.1 -5.6 89 -4  1021.8  1.3  755  309           
00 02.12.11 тихо ()   10 км  {снег}  6/0 средняя 
[Ac cast]
-5.6 -6.7 92 -6  1022.2  0.3  755  311           
03 02.12.11 тихо ()   10 км    10/0 средняя 
[As op]
-7.2 -8.1 93 -7  1023.4  756  314           
06 02.12.11 тихо ()   10 км    10/0 средняя 
[As op]
-5.7 -7.2 89 -6  1024.2  0.9  757  312  -7.6    0.0     
09 02.12.11 тихо ()   10 км    10/0 средняя 
[As op]
-3.7 -5.9 85 -4  1024.4  0.3  757  310           
12 02.12.11 270 (З) 4000 м  дымка  10/0 средняя 
[As op]
-4.4 -6.4 86 -4  1025.2  0.7  757  311           
15 02.12.11 тихо ()   4000 м  дымка  10/0 средняя 
[As op]
-4.5 -5.8 91 -5  1025.8  0.6  758  311    -3.7       
18 02.12.11 тихо ()   10 км    10/10 600 м 
[Sc]
-5 -6.3 91 -5  1026  0.2  758  312    -3.7       
21 02.12.11 170 (Ю) 10 км    10/10 600 м 
[Sc]
-5 -6.7 88 -5  1026.1  0.1  758  312           
00 03.12.11 320 (СЗ) 10 км    10/10 600 м 
[Sc]
-5.6 -7 90 -5  1026.2  0.1  758  313           
03 03.12.11 230 (ЮЗ) 10 км  слаб. снег  10/10 600 м 
[Sc]
-5.7 -7.2 89 -5  1025.6  -0.6  758  313           
06 03.12.11 250 (З) 10 км  {снег}  10/10 600 м 
[Sc]
-6 -8.3 84 -9  1025.1  -0.5  757  313  -6.5    0.0     
09 03.12.11 220 (ЮЗ) 10 км  {снег}  9/9 600 м 
[Sc]
-5.3 -7.8 83 -7  1024.5  -0.6  757  312           
12 03.12.11 200 (Ю) 10 км    9/9 600 м 
[Sc]
-5.5 -7.7 84 -7  1023.6  -0.9  756  312           
15 03.12.11 250 (З) 10 км    10/10 600 м 
[Sc]
-5.9 -8.6 81 -9  1021.8  -1.2  755  312    -5       
18 03.12.11 210 (ЮЗ) 2{12}  10 км    10/10 300 м 
[Sc]
-6 -8.7 81 -7  1020.2  -1.6  754  311    -5  0.0     
21 03.12.11 200 (Ю) 10 км    10/10 300 м 
[Sc]
-5.4 -7.9 82 -7  1019.8  -0.4  753  311           
00 04.12.11 200 (Ю) 2000 м  снег  10/10 200 м 
[Ns]
-5.4 -7.2 87 -7  1018.8  -1  753  310           
03 04.12.11 190 (Ю) 2000 м  снег  10/10 300 м 
[Ns]
-5.2 -6.6 90 -5  1017.7  -1.1  752  310           
06 04.12.11 210 (ЮЗ) 10 км  слаб. снег  10/10 300 м 
[Ns]
-4.4 -5.6 91 -4  1017.3  -0.3  752  308  -6       
09 04.12.11 190 (Ю) 10 км  слаб. снег  10/10 300 м 
[Ns]
-4 -5.5 89 -4  1016.9  -0.4  751  308           
12 04.12.11 200 (Ю) 10 км  {снег}  10/10 600 м 
[Sc]
-3.2 -5.3 85 -3  1017.3  0.4  752  307           
15 04.12.11 180 (Ю) 10 км  слаб. снег  10/10 600 м 
[Sc]
-4 -5.9 87 -4  1016.1  -1.2  751  308    -3.2       
18 04.12.11 160 (Ю) 2000 м  снег  10/10 200 м 
[Ns]
-3.7 -4.8 92 -6  1014.2  -1.9  749  307    -3.2  0.0     
21 04.12.11 180 (Ю) 4000 м  слаб. снег  10/10 200 м 
[Ns]
-2.6 -3.6 93 -4  1012.5  -1.6  748  305           
00 05.12.11 200 (Ю) 4000 м  слаб. снег  10/10 200 м 
[Ns]
-2.6 -3.6 93 -4  1011.5  -1  747  304           
03 05.12.11 240 (ЮЗ) 2000 м  снег  10/10 200 м 
[Ns]
-2.2 -2.8 96 -3  1010.5  -0.9  747  304           
06 05.12.11 190 (Ю) 10 км  слаб. снег  10/10 300 м 
[Ns]
-2.4 -3.3 94 -4  1009.7  -0.8  746  304  -4       
09 05.12.11 190 (Ю) 3{10}  >10 км    10/10 300 м 
[Sc]
-2.1 -3.3 91 -4  1008.8  -0.9  745  303           
12 05.12.11 190 (Ю) 3{11}  4000 м  слаб. переохл. дождь (гололёд)  10/10 200 м 
[Ns]
-0.2 -1.1 94 -2  1007.4  -1.3  744  300           
15 05.12.11 230 (ЮЗ) 2{10}  10 км  в посл. час дождь  10/10 300 м 
[St]
+1.9 +0.6 91 +1  1009.3  2.1  746  298    +1.9       
18 05.12.11 220 (ЮЗ) 2{11}  10 км  {дождь}  10/10 600 м 
[Sc]
+2.3 +1 91 +2  1010.7  1.4  747  298    +1.9     
21 05.12.11 210 (ЮЗ) 10 км    10/10 300 м 
[Sc]
+1.9 +0.6 91 +1  1011.6  0.9  748  299           
00 06.12.11 200 (Ю) 4000 м  дымка  10/10 300 м 
[Frnb]
+0.9 -0.2 92 1011.1  -0.7  747  300           
03 06.12.11 190 (Ю) 4{13}  10 км    10/10 300 м 
[Sc]
+0.8 -0.6 90 -2  1010  -1.1  746  300           
06 06.12.11 190 (Ю) 4-12{13}  10 км  в посл. час дождь  10/10 200 м 
[Frnb|Ns]
+0.8 -0.3 92 -2  1009.4  -0.6  746  300  +0.7         
09 06.12.11 190 (Ю) 4-11{15}  10 км  слаб. дождь  10/10 200 м 
[Frnb|Ns]
+0.9 -0.2 92 -1  1009.8  0.4  746  300           
12 06.12.11 190 (Ю) 3-11{12}  10 км  слаб. дождь  10/10 300 м 
[Frnb|Ns]
+1.1 +0 92 1009.9  0.1  746  299           
15 06.12.11 190 (Ю) 3{12}  10 км  слаб. снег{дождь}  10/10 300 м 
[Frnb|Ns]
+1.1 +0 92 1011.9  748  300    +1.1       
18 06.12.11 180 (Ю) 4000 м  снег{дождь}  10/10 200 м 
[Ns]
+0.8 +0 94 1013.3  1.4  749  301    +1.1     
21 06.12.11 180 (Ю) 10 км  в посл. час снег  10/10 300 м 
[St]
+0.8 +0 94 1014.4  1.1  750  301           
00 07.12.11 180 (Ю) 10 км  слаб. снег  10/10 200 м 
[Ns]
+0.4 -0.2 96 1014.9  0.5  750  302           
03 07.12.11 170 (Ю) 4000 м  снег  10/10 200 м 
[Ns]
+0.2 -0.4 96 -1  1014.5  -0.4  750  302           
06 07.12.11 180 (Ю) 1000 м  сильн. снег  10/10 200 м 
[Ns]
+0.2 -0.4 96 -2  1014.5  750  302  -0.2       
09 07.12.11 180 (Ю) 3{10}  4000 м  снег  10/10 300 м 
[Ns]
+0.2 -0.4 96 -2  1014.9  0.4  750  302           
12 07.12.11 180 (Ю) 3{11}  2000 м  сильн. снег [диам. гололёда 3 мм]  10/10 200 м 
-1.3 -1.9 96 -3  1015.7  0.7  751  304           
15 07.12.11 190 (Ю) 4000 м  слаб. снег [диам. гололёда 2 мм]  10/10 300 м 
[Sc]
-3 -3.6 96 -5  1016.8  0.9  751  306    +0.2       
18 07.12.11 170 (Ю) 4000 м  слаб. снег [диам. гололёда 2 мм]  10/10 200 м 
[Frnb|Ns]
-2.6 -3.3 95 -5  1019.5  2.7  753  307    +0.2     
21 07.12.11 180 (Ю) 2000 м  снег [диам. гололёда 2 мм]  10/10 200 м 
[Frnb|Ns]
-2.6 -3.3 95 -4  1020.4  0.9  754  307           
00 08.12.11 180 (Ю) 1000 м  сильн. снег [диам. гололёда 2 мм]  10/10 200 м 
[Frnb|Ns]
-3.2 -3.9 95 -4  1020.8  0.4  754  308           
03 08.12.11 160 (Ю) 4000 м  слаб. снег [диам. гололёда 2 мм]  10/10 300 м 
[Frnb|Ns]
-4.6 -5.2 96 -6  1022  1.1  755  310           
06 08.12.11 150 (ЮВ) >10 км  {снег}  10/10 600 м 
[Sc]
-5.6 -6.3 95 -7  1024.1  757  312  -4.6       
09 08.12.11 150 (ЮВ) >10 км  [диам. гололёда 2 мм]  10/10 600 м 
[Sc]
-6.3 -7.1 94 -9  1025.3  1.2  757  313           
12 08.12.11 150 (ЮВ) 4000 м  слаб. снег [диам. гололёда 2 мм]  10/10 300 м 
[Ns]
-6.7 -7.6 93 -8  1025.6  0.2  758  314           
15 08.12.11 160 (Ю) 2000 м  снег [диам. гололёда 2 мм]  10/10 300 м 
[Ns]
-7.5 -8.5 93 -10  1025.2  -0.4  757  315    -4.6       
18 08.12.11 150 (ЮВ) 10 км  слаб. снег  10/10 300 м 
[Ns]
-7.8 -8.8 93 -11  1025  -0.2  757  315    -4.6     
21 08.12.11 180 (Ю) 10 км  слаб. снег  10/10 300 м 
[Ns]
-8 -9 93 -12  1025.6  0.6  758  315           
00 09.12.11 180 (Ю) 10 км  {снег} [диам. гололёда 2 мм]  10/10 600 м 
[Sc]
-7.2 -8.5 90 -10  1026.5  0.9  758  315           
03 09.12.11 160 (Ю) 10 км  [диам. гололёда 2 мм]  10/10 600 м 
[Sc]
-8.8 -10.3 89 -12  1027.7  759  317           
06 09.12.11 160 (Ю) >10 км  [диам. гололёда 2 мм]  10/10 1000 м 
[Sc]
-9.1 -11.1 85 -11  1028.3  0.6  759  318  -8.8    0.3     
09 09.12.11 160 (Ю) >10 км  [диам. гололёда 2 мм]  10/0 средняя 
[Ac As]
-8.2 -11.4 78 -10  1028.5  0.3  760  317           
12 09.12.11 140 (ЮВ) >10 км  [диам. гололёда 2 мм]  10/3 1000 м средняя, верхняя 
[Sc|Ac und|Cc]
-7.9 -11.5 75 -9  1028.7  0.2  760  316           
15 09.12.11 160 (Ю) 10 км    10/0 средняя 
[As trans]
-7.7 -10.8 78 -10  1028.9  0.2  760  316    -7.7       
18 09.12.11 140 (ЮВ) 10 км    10/0 верхняя 
[Cs]
-7.8 -10.5 81 -9  1028.4  -0.5  760  316    -7.7       
21 09.12.11 140 (ЮВ) 10 км    10/0 верхняя 
[Cc]
-8.1 -11.3 78 -11  1027.5  -0.8  759  316           
00 10.12.11 160 (Ю) 10 км    8/0 верхняя 
[Ci fib]
-9.5 -12.1 81 -11  1026.9  -0.2  759  318           
03 10.12.11 160 (Ю) 10 км    8/0 верхняя 
[Ci fib]
-11.2 -14 80 -13  1027.1  -0.5  758  320           
06 10.12.11 160 (Ю) 10 км    9/0 средняя, верхняя 
[Ac lent|Ci sp]
-12.7 -14.7 85 -16  1027  -0.2  758  322  -12.7         
09 10.12.11 160 (Ю) 10 км    10/0 средняя, верхняя 
[Ac cast|Ci sp]
-12.5 -15.2 80 -16  1026.1  -0.9  758  321           
12 10.12.11 170 (Ю) 10 км    9/0 средняя 
[Ac cast]
-11.9 -14.6 80 -14  1025.9  -0.1  758  320           
15 10.12.11 190 (Ю) 10 км    10/0 средняя, верхняя 
[Ac cast|Ci sp]
-11.6 -14.4 80 -14  1025.2  -0.7  757  320    -11.2       
18 10.12.11 160 (Ю) 10 км    8/0 средняя 
[Ac cast]
-12.1 -13.8 87 -15  1024.5  -0.7  757  320    -11.2       
21 10.12.11 160 (Ю) 10 км    10/0 
[Sc]
-12.7 -14.7 85 -15  1024.8  0.2  757  321           
00 11.12.11 160 (Ю) 10 км    10/10 1000 м 
[Sc]
-13.4 -15.4 85 -17  1024.3  -0.5  756  322           
03 11.12.11 160 (Ю) 10 км    10/10 1000 м 
[Sc]
-13.9 -15.9 85 -17  1023.8  -0.5  756  322           
06 11.12.11 170 (Ю) 3{10}  >10 км    10/10 1000 м 
[Sc]
-13.6 -15.6 85 -17  1023.5  -0.3  756  322  -13.9         
09 11.12.11 160 (Ю) 4000 м  слаб. снег  10/10 300 м 
[Ns]
-13 -15 85 -16  1022.4  -1  755  321           
12 11.12.11 150 (ЮВ) 10 км  слаб. снег  10/10 300 м 
[Sc]
-12.6 -14.6 85 -16  1021.4  -1  754  320           
15 11.12.11 150 (ЮВ) 10 км  слаб. снег  10/0 средняя 
[As op]
-13.6 -15.6 85 -17  1020.2  -1.2  753  321    -12.6       
18 11.12.11 150 (ЮВ) 10 км  {снег}  10/0 средняя 
[As op]
-13.1 -15.1 85 -17  1018.1  -2  752  320    -12.6  0.2     
21 11.12.11 150 (ЮВ) 10 км  слаб. снег  10/10 300 м 
[Sc]
-12.6 -14.6 85 -16  1016.4  -1.7  751  318           
00 12.12.11 160 (Ю) 2000 м  снег  10/10 300 м 
[Frnb|Ns]
-12.2 -14.2 85 -16  1014.8  -1.5  749  317           
03 12.12.11 160 (Ю) 2000 м  снег  10/10 200 м 
[Frnb|Ns]
-12.5 -14.5 85 -15  1014.6  -0.3  749  318           
06 12.12.11 140 (ЮВ) 4000 м  слаб. снег  10/10 300 м 
[Ns]
-11.8 -13.8 85 -14  1014.4  -0.1  749  317  -13.6       
09 12.12.11 170 (Ю) 2000 м  снег  10/10 300 м 
[Ns]
-10.9 -12.9 85 -13  1015.3  0.9  750  316           
12 12.12.11 160 (Ю) 4000 м  слаб. снег  10/10 300 м 
[Ns]
-10.9 -12.9 85 -11  1015.7  0.4  750  316           
15 12.12.11 180 (Ю) 2000 м  снег  10/10 300 м 
[Ns]
-10.8 -12.1 90 -11  1016.9  1.2  751  316    -11.9       
18 12.12.11 180 (Ю) 10 км  слаб. снег  10/0 средняя 
[As op]
-10.7 -10.5 100 -11  1017.8  0.9  752  316    -10.8     
21 12.12.11 тихо ()   10 км  слаб. снег  10/0 средняя 
[As op]
-10.1 -11.4 90 -10  1019  1.2  753  316           
00 13.12.11 тихо ()   10 км  в посл. час снег  10/0 средняя 
[As op]
-9.6 -11.7 85 -10  1019.9  0.9  753  316           
03 13.12.11 040 (СВ) 10 км    10/10 1000 м 
[Sc]
-9.2 -11.2 85 -9  1021.6  1.7  755  316           
06 13.12.11 030 (СВ) >10 км  слаб. снег  10/10 600 м 
[Sc]
-8.6 -11 83 -8  1025.1  3.4  757  316  -10.9       
09 13.12.11 тихо ()   >10 км  {снег}  10/10 1000 м 
[Sc]
-7.2 -10.6 77 -7  1026.9  759  315           
12 13.12.11 тихо ()   >10 км  {снег}  10/10 1000 м 
[Sc]
-7.6 -10.7 79 -8  1028.5  1.5  760  316           
15 13.12.11 тихо ()   10 км    9/9 1000 м 
[Sc]
-8.6 -11.4 80 -9  1029.6  760  317    -7       
18 13.12.11 тихо ()   10 км    9/3 600 м средняя 
[Sc|Ac cast]
-8.8 -11.2 83 -9  1030.8  1.2  761  318    -7  0.0     
21 13.12.11 150 (ЮВ) 10 км    10/9 600 м 
[Sc]
-9.3 -10.9 88 -9  1031.5  0.7  762  319           
00 14.12.11 150 (ЮВ) 10 км    10/10 600 м 
[Sc]
-9.4 -11.5 85 -11  1032.2  0.5  762  319           
03 14.12.11 140 (ЮВ) 10 км    9/0 средняя 
[Ac cast]
-9.8 -11.9 85 -12  1032.1  -0.1  762  320           
06 14.12.11 150 (ЮВ) 10 км    9/0 средняя 
[Ac cast]
-9.1 -11.1 85 -12  1031.6  -0.5  762  319  -9.9         
09 14.12.11 160 (Ю) 10 км    9/0 средняя 
[Ac cast]
-7.9 -10.1 84 -9  1031.1  -0.4  762  317           
12 14.12.11 160 (Ю) 2000 м  снег  10/10 300 м 
[Frnb|Ns]
-7 -8.7 88 -8  1030.6  -0.5  761  316           
15 14.12.11 150 (ЮВ) 4000 м  слаб. снег  10/10 200 м 
[Frnb|Ns]
-5.9 -7.4 89 -7  1029.8  -0.7  761  314    -5.9       
18 14.12.11 170 (Ю) 2000 м  снег  10/10 200 м 
[Frnb|Ns]
-5.4 -6.8 90 -7  1028.8  -1  760  313    -5.9  0.7     
21 14.12.11 180 (Ю) 2000 м  снег  10/10 200 м 
[Frnb|Ns]
-4.8 -5.8 93 -6  1028.2  -0.6  760  312           
00 15.12.11 190 (Ю) 4000 м  слаб. снег  10/10 300 м 
[Frnb|Ns]
-4.5 -5.4 93 -4  1027.8  -0.3  759  312           
03 15.12.11 180 (Ю) 10 км  в посл. час снег  10/10 300 м 
[Frnb]
-3.5 -4.3 94 -3  1028.2  0.4  760  311           
06 15.12.11 250 (З) 10 км  слаб. снег  10/10 300 м 
[Ns]
-3.5 -4.6 92 -5  1027.5  -0.6  759  310  -5.9       
09 15.12.11 240 (ЮЗ) 10 км  {снег}  10/10 300 м 
[Sc]
-2.6 -3.9 91 -5  1027.8  0.4  759  309           
12 15.12.11 200 (Ю) 10 км    10/10 300 м 
[Sc]
-2.4 -3.6 91 -2  1028  0.2  760  309           
15 15.12.11 170 (Ю) 10 км    10/10 300 м 
[Sc]
-2.1 -3.3 91 -2  1028.2  0.1  760  309    -1.8       
18 15.12.11 190 (Ю) 10 км    10/10 300 м 
[St]
-2.6 -3.9 91 -4  1030.1  1.8  761  310    -1.8  0.0     
21 15.12.11 170 (Ю) 10 км    10/10 200 м 
[St]
-3.6 -4.7 92 -5  1029.9  -0.2  761  311           
00 16.12.11 180 (Ю) 10 км  снежные зёрна  10/10 200 м 
[St]
-4.2 -5.1 93 -5  1029.9  761  312           
03 16.12.11 180 (Ю) 10 км  в посл. час морось{снег}  10/10 200 м 
[St]
-4.3 -5.5 91 -6  1029.5  -0.4  761  312           
06 16.12.11 190 (Ю) >10 км  {снег}  10/10 600 м 
[Sc]
-5 -6.3 91 -5  1029.3  -0.3  760  313  -4.4    0.0     
09 16.12.11 170 (Ю) >10 км    10/10 600 м 
[Sc]
-5.7 -6.8 92 -7  1029.8  0.5  761  314           
12 16.12.11 180 (Ю) >10 км    10/10 600 м 
[Sc]
-6 -7.5 89 -6  1030  0.2  761  314           
15 16.12.11 160 (Ю) 10 км    10/10 600 м 
[Sc]
-6.6 -8.2 88 -8  1030.6  0.5  761  315    -4.3       
18 16.12.11 170 (Ю) 10 км    10/10 600 м 
[Sc]
-6.4 -8 88 -9  1030.8  0.2  761  315    -4.3       
21 16.12.11 180 (Ю) 3-10{10}  10 км    10/10 600 м 
[Sc]
-6.6 -8.2 88 -9  1031  0.2  762  315           
00 17.12.11 160 (Ю) 10 км    10/10 600 м 
[Sc]
-6.9 -9 85 -10  1031.6  0.6  762  316           
03 17.12.11 170 (Ю) 10 км    9/9 600 м 
[Sc]
-7.6 -10.2 82 -10  1032  0.4  762  317           
06 17.12.11 150 (ЮВ) >10 км    10/3 1000 м верхняя 
[Sc|Ci sp]
-9.1 -11.9 80 -12  1032.5  0.4  763  319  -7.6         
09 17.12.11 150 (ЮВ) >10 км    10/0 верхняя 
[Ci sp]
-12 -15.5 75 -15  1033.6  0.9  763  323           
12 17.12.11 160 (Ю) >10 км    10/0 верхняя 
[Cs]
-11.9 -15.4 75 -15  1033.8  0.2  763  323           
15 17.12.11 150 (ЮВ) 10 км    8/0 верхняя 
[Ci sp]
-11.9 -15.4 75 -15  1033.7  -0.1  763  323    -7.6       
18 17.12.11 150 (ЮВ) 10 км    ясно 
-11.5 -15.9 70 -13  1034.1  0.4  764  323    -7.6       
21 17.12.11 150 (ЮВ) 10 км    ясно 
-11.7 -15.2 75 -15  1034.6  0.5  764  323           
00 18.12.11 170 (Ю) 10 км    ясно 
-11.5 -15.9 70 -15  1035  0.4  764  323           
03 18.12.11 150 (ЮВ) 10 км    ясно 
-11.9 -15.4 75 -15  1035.6  0.6  765  324           
06 18.12.11 150 (ЮВ) 10 км    ясно 
-12.4 -15.9 75 -18  1036.6  0.8  765  324  -12.4         
09 18.12.11 150 (ЮВ) >10 км    3/0 верхняя 
[Ci fib]
-10.2 -14.6 70 -14  1036.5  0.2  766  322           
12 18.12.11 150 (ЮВ) >10 км    10/0 средняя, верхняя 
[Ac lent|Ci fib]
-9.8 -14 71 -14  1036.7  0.2  766  321           
15 18.12.11 150 (ЮВ) 10 км    10/0 средняя, верхняя 
[Ac lent|Ci fib]
-10.7 -15.1 70 -14  1037.3  0.5  766  323    -9.6       
18 18.12.11 150 (ЮВ) 5{10}  10 км    4/0 средняя 
[Ac cast]
-10.6 -14.2 75 -15  1036.9  -0.4  766  322    -9.6       
21 18.12.11 150 (ЮВ) 5-10{11}  10 км    8/0 средняя 
[Ac cast]
-10.3 -14.7 70 -15  1036.7  -0.2  766  322           
00 19.12.11 150 (ЮВ) 5-10{12}  10 км    9/9 600 м 
[Sc]
-10.3 -14.7 70 -15  1036.4  -0.3  765  322           
03 19.12.11 160 (Ю) 5-10{13}  10 км    10/0 средняя 
[Ac As]
-10.5 -15.8 65 -15  1035.6  -0.8  765  322           
06 19.12.11 170 (Ю) 4-12{13}  >10 км    10/0 средняя 
[Ac trans]
-9.9 -14.6 69 -14  1035.4  -0.1  765  321  -11.1         
09 19.12.11 150 (ЮВ) 2000 м  снег  10/10 300 м 
[Ns]
-10.6 -13.4 80 -12  1036.2  0.7  765  322           
12 19.12.11 180 (Ю) 2-10{10}  1000 м  сильн. снег  10/10 200 м 
[Ns]
-11.1 -13.1 85 -13  1036  -0.2  765  323           
15 19.12.11 190 (Ю) 2000 м  снег  10/10 300 м 
[Ns]
-11.5 -13.5 85 -15  1037.8  1.8  766  324    -9.9       
18 19.12.11 180 (Ю) 4000 м  слаб. снег  10/10 600 м 
[Sc]
-11.5 -13.5 85 -13  1038.7  0.8  767  324    -9.9     
21 19.12.11 190 (Ю) 10 км  слаб. снег  10/10 300 м 
[Sc]
-10.9 -12.9 85 -13  1040.1  1.4  768  324           
00 20.12.11 190 (Ю) 10 км  снежные зёрна  10/10 300 м 
[St]
-10.5 -12.5 85 -12  1040.3  0.3  768  323           
03 20.12.11 170 (Ю) 10 км  снежные зёрна  10/10 300 м 
[St]
-10.5 -12.5 85 -12  1041.7  1.3  769  324           
06 20.12.11 150 (ЮВ) >10 км  {снег}  10/10 600 м 
[Sc]
-10.8 -12.8 85 -14  1041.1  -0.6  769  324  -11.6    0.4     
09 20.12.11 160 (Ю) >10 км  слаб. снег  10/10 300 м 
[Sc]
-10.1 -12.1 85 -13  1040.1  -0.9  768  323           
12 20.12.11 150 (ЮВ) >10 км  слаб. снег  10/9 600 м средняя 
[Sc|Ac cast]
-9.6 -11.7 85 -13  1038.1  -1.9  767  321           
15 20.12.11 150 (ЮВ) 10 км  в посл. час снег  10/10 600 м 
[Sc]
-8.4 -11.2 80 -11  1036.6  -1.5  766  319    -8.4       
18 20.12.11 150 (ЮВ) 10 км    10/10 1000 м 
[Sc]
-7.6 -11.1 76 -10  1035.3  -1.2  765  318    -8.4  0.2     
21 20.12.11 150 (ЮВ) 10 км  {снег}  9/9 600 м 
[Sc]
-7 -11.4 71 -11  1032.4  -2.8  763  316           
00 21.12.11 140 (ЮВ) 10 км    10/0 средняя 
[Ac und]
-7 -10.8 74 -8  1030.4  -2  761  316           
03 21.12.11 150 (ЮВ) 2{10}  10 км    10/0 средняя 
[Ac und]
-7.4 -11.4 73 -9  1029.7  -0.7  761  316           
06 21.12.11 170 (Ю) 10 км    10/0 средняя 
[Ac As]
-7.6 -12.1 70 -9  1029  -0.7  760  316  -8.4    0.2     
09 21.12.11 160 (Ю) >10 км    10/0 средняя 
[As trans]
-6.8 -11.2 71 -8  1026.9  -1.4  759  315           
12 21.12.11 150 (ЮВ) >10 км    10/0 <0100 м средняя, верхняя 
[Ac cast|Cc]
-7.4 -11.7 71 -11  1025.9  -1  758  315           
15 21.12.11 170 (Ю) н/о    н/о 
-7 -11.5 70 -10  1025.6  -0.2  758  315    -6.5       
18 21.12.11 170 (Ю) 4{10}  10 км  позёмок  10/10 <0100 м 
[Ns]
-6.8 -11 72 -10  1025.2  -0.5  758  314    -6.5       
21 21.12.11 150 (ЮВ) 10 км  позёмок  10/0 <0100 м верхняя 
[Cs]
-7 -11 73 -11  1025.4  0.2  758  314           
00 22.12.11 150 (ЮВ) 10 км  позёмок  10/0 верхняя 
[Cs]
-7.9 -11.9 73 -11  1024.9  -0.6  757  315           
03 22.12.11 160 (Ю) 10 км    10/0 <0100 м верхняя 
[Ci fib]
-7.5 -12 70 -10  1024.1  -0.7  757  315        35  равномерный
сухой снег
100% 
06 22.12.11 160 (Ю) 10 км    10/0 средняя 
[Ac As]
-8.3 -12.4 72 -11  1022.8  -1.3  756  315  -7.9         
09 22.12.11 170 (Ю) 3{11}  10 км    10/0 средняя 
[As trans]
-8.3 -12.6 71 -11  1021.9  -0.9  755  315           
12 22.12.11 160 (Ю) 4000 м  снежные зёрна  10/10 200 м 
[St]
-8.4 -12.1 74 -11  1020.9  -1.6  754  315           
15 22.12.11 170 (Ю) 2000 м  снег  10/10 210 м 
[Frnb|Ns]
-8.8 -10.4 88 -12  1019  -1.3  753  315    -7.5       
18 22.12.11 160 (Ю) 4{11}  10 км  слаб. снег  10/10 210 м 
[Frnb|Ns]
-9.6 -11.3 87 -14  1018.4  -0.7  752  315    -7.5  0.5     
21 22.12.11 160 (Ю) 3{10}  10 км  {снег}  10/10 210 м 
[Ns]
-9.5 -11 89 -12  1017.8  -0.5  752  315           
00 23.12.11 140 (ЮВ) 4000 м  слаб. снег  10/10 200 м 
[Ns]
-9 -10.4 89 -12  1016.7  -1.1  751  314           
03 23.12.11 160 (Ю) 3{12}  4000 м  слаб. снег  10/10 200 м 
[Frnb|Ns]
-8.2 -9.6 89 -11  1015.6  -1.1  750  313           
06 23.12.11 160 (Ю) 3{10}  4000 м  слаб. снег  10/10 100 м 
[Frnb|Ns]
+7.7 -8.9 30 +7  1015.7  0.2  751  295  -9.6       
09 23.12.11 170 (Ю) 2000 м  снег  10/10 180 м 
[Frnb|Ns]
-6.8 -7.9 92 -9  1015.5  -0.2  750  311           
12 23.12.11 160 (Ю) 2000 м  снег  10/10 210 м 
[Ns]
-6.6 -7.6 92 -9  1015.4  -0.1  750  311           
15 23.12.11 160 (Ю) 4000 м  слаб. снег  10/10 180 м 
[Frnb|Ns]
-6.4 -7.4 93 -8  1015.5  -0.1  750  310    -6.2       
18 23.12.11 160 (Ю) 4000 м  слаб. снег  10/10 330 м 
[Ns]
-5.9 -7 92 -8  1015.3  -0.2  750  310    -6.2     
21 23.12.11 160 (Ю) 4000 м  слаб. снег  10/10 400 м 
[Ns]
-5.6 -6.6 93 -7  1015.1  -0.2  750  309           
00 24.12.11 190 (Ю) 2000 м  снег  10/10 210 м 
[Frnb|Ns]
-4.8 -5.6 94 -6  1015  0.1  750  308           
03 24.12.11 170 (Ю) 4000 м  слаб. снег  10/10 330 м 
[Frnb|Ns]
-5.2 -6 94 -5  1014.9  0.1  750  309        41  равномерный
сухой снег
100% 
06 24.12.11 170 (Ю) 10 км  слаб. снег  10/10 660 м 
[Sc]
-4.8 -5.5 95 -4  1015.5  0.6  751  308  -6.4       
09 24.12.11 290 (З) >10 км  слаб. снег  10/10 900 м 
[Sc]
-3.7 -4.8 92 -6  1015.7  0.3  751  307           
12 24.12.11 280 (З) >10 км  {снег}  10/6 600 м средняя 
[Sc|Ac cast]
-5.4 -7.2 87 -7  1016.4  0.6  751  310           
15 24.12.11 280 (З) 10 км    10/10 800 м 
[Sc]
-6.6 -8.3 88 -9  1017.4  0.9  752  311    -3.5       
18 24.12.11 290 (З) 10 км    10/10 800 м 
[Sc]
-8.8 -10.1 90 -12  1018.2  0.6  752  314    -3.5  0.2     
21 24.12.11 300 (СЗ) 10 км  слаб. снег  10/10 800 м 
[Sc]
-9 -10.7 87 -11  1018.9  0.6  753  315           
00 25.12.11 280 (З) 10 км  слаб. снег  10/10 800 м 
[Sc]
-9.2 -10.8 88 -9  1019.3  0.4  753  315           
03 25.12.11 290 (З) 10 км  слаб. снег  10/10 800 м 
[Sc]
-8.9 -10.3 90 -11  1019.5  0.2  753  315        42  равномерный
сухой снег
100% 
06 25.12.11 250 (З) 10 км  снег  10/10 660 м 
[Sc]
-9.3 -10.7 89 -9  1019.8  0.4  754  315  -9.2       
09 25.12.11 270 (З) >10 км  {снег}  ясно 
-9.4 -11.4 85 -11  1020.1  0.2  754  316           
12 25.12.11 280 (З) >10 км  в посл. час снег  9/9 600 м 
[Sc]
-10 -11.9 86 -12  1020.1  754  316           
15 25.12.11 260 (З) 10 км  слаб. снег  10/10 400 м 
[Ns]
-10.3 -11.4 91 -12  1020.2  0.1  754  317    -8.8       
18 25.12.11 230 (ЮЗ) 10 км  слаб. снег  10/10 600 м 
[Sc]
-10.3 -11.3 92 -10  1019.5  -0.7  753  316    -8.8  0.3     
21 25.12.11 200 (Ю) 10 км  слаб. снег  10/10 1000 м 
[Sc]
-10.6 -11.7 92 -10  1018.6  -0.8  753  317           
00 26.12.11 200 (Ю) 10 км  в посл. час снег  10/10 1080 м 
[Sc]
-10.6 -11.8 91 -10  1017.1  -1.5  751  316           
03 26.12.11 230 (ЮЗ) 10 км  слаб. снег  10/10 900 м 
[Sc]
-10.1 -11.3 91 -10  1015.5  -1.6  750  315        42  равномерный
сухой снег
100% 
06 26.12.11 240 (ЮЗ) 10 км  слаб. снег  10/0 средняя 
[As op]
-9.1 -10.7 88 -11  1014.2  -1.2  749  313      0.3     
09 26.12.11 250 (З) 10 км  {снег}  10/10 400 м 
[St]
-7.6 -9.6 86 -10  1011.9  -2.2  748  311           
12 26.12.11 180 (Ю) 10 км  {снег}  10/10 360 м 
[St]
-6.7 -8.5 87 -6  1008.3  -3.4  745  309           
15 26.12.11 200 (Ю) 10 км    10/10 360 м 
[St]
-6 -7.7 88 -7  1003.9  -4.3  742  306    -6       
18 26.12.11 190 (Ю) 10 км    10/10 300 м 
[St]
-5.1 -6.8 88 -6  998.9  -99.5  738  304    -5.9  0.4     
21 26.12.11 180 (Ю) 4000 м  слаб. снег  10/10 240 м 
[Frnb|Ns]
-4.9 -6 92 -6  994.9  -3.9  735  302           
00 27.12.11 190 (Ю) 4000 м  слаб. снег  10/10 210 м 
[Ns]
-4.1 -5 93 -5  992.5  -2.3  734  301           
03 27.12.11 190 (Ю) 4000 м  слаб. снег  10/10 180 м 
[Frnb|Ns]
-3.3 -4 95 -3  991.2  -1.2  733  299        43  равномерный
сухой снег
100% 
06 27.12.11 270 (З) 4000 м  снег  10/10 180 м 
[Frnb|Ns]
-1.3 -2 95 -1  992  0.9  733  297  -6       
09 27.12.11 310 (СЗ) >10 км  слаб. снег  10/10 720 м 
[Sc]
+0.9 +0 94 -1  993.6  1.7  735  295           
12 27.12.11 290 (З) 10 км  слаб. снег  10/10 700 м 
[Sc]
+0.5 -0.4 94 996  2.3  736  296           
15 27.12.11 270 (З) 10 км    9/9 1080 м 
[Sc]
+0.5 -1.3 88 995.5  -0.4  736  296    +1.2       
18 27.12.11 230 (ЮЗ) 10 км    10/10 630 м 
[Sc]
+0.7 -2 82 992.6  -2.9  734  295    +1.2  0.7     
21 27.12.11 200 (Ю) 2000 м  снег  10/10 210 м 
[Frnb|Ns]
-0.4 -1.4 93 -1  986.9  -5.6  730  294           
00 28.12.11 210 (ЮЗ) 2000 м  снег  10/10 210 м 
[Frnb|Ns]
+0 -0.5 96 -1  981.2  -5.5  725  292           
03 28.12.11 320 (СЗ) 10 км  в посл. час снег  10/0 средняя 
[As op]
+1.2 +0.2 93 -1  980  -1.2  725  291           
06 28.12.11 290 (З) >10 км  {снег}  9/9 900 м 
[Sc]
+0.7 -1.2 87 -1  982  1.9  726  292  -0.4       
09 28.12.11 280 (З) >10 км    8/8 930 м 
[Sc]
+0.4 -3 78 -2  982.2  726  292           
12 28.12.11 300 (СЗ) 10 км  слаб. снег  10/10 720 м 
[Sc]
-0.4 -2.2 88 -3  982.9  0.7  727  293           
15 28.12.11 310 (СЗ) 10 км  {снег}  9/9 800 м 
[Sc]
-0.8 -4.1 78 -4  986.6  3.6  729  295    +0.8       
21 28.12.11 310 (СЗ) 10 км  {снег}  9/9 840 м 
[Sc]
-1.6 -5.4 75 -4  992.8  3.4  734  298           
00 29.12.11 320 (СЗ) 4000 м  снег  10/10 540 м 
[Sc]
-1.8 -3.6 87 -5  996.5  3.6  737  299           
03 29.12.11 320 (СЗ) 4-11{13}  10 км  слаб. снег  10/10 700 м 
[Sc]
-2.2 -5.8 76 -5  1001.1  4.5  740  301        46  равномерный
мокрый или
старый снег
100% 
06 29.12.11 330 (СЗ) 4-12{13}  >10 км  {снег}  10/10 800 м 
[Sc]
-2.2 -6.3 73 -5  1005.8  4.6  743  303  -2.2    0.4     
09 29.12.11 320 (СЗ) 5-11{14}  >10 км    9/9 750 м 
[Sc]
-2.1 -6.3 73 -5  1008.5  2.6  745  303           
12 29.12.11 300 (СЗ) 3{11}  >10 км    5/0 средняя, верхняя 
[Ac lent|Ci fib]
-3.1 -7.2 73 -5  1011.8  3.2  748  306           
15 29.12.11 280 (З) 10 км    8/0 <0100 м верхняя 
[Ci fib]
-5.6 -8.6 79 -7  1014.1  2.1  749  309    -2       
18 29.12.11 260 (З) 10 км    10/0 <0100 м верхняя 
[Ci sp]
-5.6 -8.1 82 -7  1014.3  0.2  750  309    -2  0.0     
21 29.12.11 160 (Ю) 10 км    4/0 верхняя 
[Ci]
-7.5 -9.1 88 -9  1013.1  -1.3  749  311           
00 30.12.11 250 (З) 10 км    10/10 1080 м 
[Sc]
-4.6 -7.4 81 -7  1012  -0.9  748  307           
03 30.12.11 250 (З) 10 км    9/9 1080 м 
[Sc]
-4.4 -7.2 81 -8  1011.4  -0.5  748  307        44  равномерный
сухой снег
100% 
06 30.12.11 240 (ЮЗ) 10 км    10/10 840 м 
[Sc]
-2.9 -5.6 82 -6  1012  0.7  748  305  -7.6         
09 30.12.11 240 (ЮЗ) 10 км    10/10 960 м 
[Sc]
-2.1 -5.1 80 -4  1013.3  1.3  749  305           
12 30.12.11 210 (ЮЗ) 10 км    9/9 1110 м 
[Sc]
-2.5 -5.4 81 -2  1014.5  1.1  750  306           
15 30.12.11 тихо ()   10 км    10/10 930 м 
[Sc]
-2.9 -6.3 77 -3  1016.3  1.7  751  307    -2       
18 30.12.11 230 (ЮЗ) 10 км    10/10 1200 м 
[Sc]
-3.3 -6.6 78 -3  1017.7  1.4  752  307    -2       
21 30.12.11 210 (ЮЗ) 10 км    10/10 1260 м 
[Sc]
-3.2 -5.9 82 -3  1018.1  0.4  752  307           
00 31.12.11 160 (Ю) 10 км    10/3 1000 м средняя 
[Sc|Ac und]
-4.9 -7.6 81 -6  1018.7  0.5  753  310           
03 31.12.11 150 (ЮВ) 10 км    10/0 средняя 
[Ac und]
-7.4 -9 88 -9  1019  0.1  753  313        44  равномерный
сухой снег
100% 
06 31.12.11 140 (ЮВ) >10 км    10/0 средняя 
[Ac As]
-7 -8.1 92 -10  1018.8  0.1  753  312  -7.4         
09 31.12.11 160 (Ю) 10 км  слаб. снег  10/0 средняя 
[Ac As]
-6.1 -7.6 89 -9  1017.9  -0.9  752  311           
12 31.12.11 150 (ЮВ) 10 км  слаб. снег  10/0 средняя 
[Ac As]
-5.6 -6.9 91 -8  1017.3  -0.5  752  310           
15 31.12.11 170 (Ю) 10 км  слаб. снег  10/10 700 м 
[Sc]
-7.2 -8.6 90 -9  1017.5  0.1  752  312    -5.6       
18 31.12.11 160 (Ю) 4000 м  слаб. снег  10/10 360 м 
[Ns]
-7.7 -9.2 89 -9  1017.9  0.3  752  313    -5.6  0.7     
21 31.12.11 150 (ЮВ) 4000 м  слаб. снег  10/10 210 м 
[Frnb|Ns]
-7.6 -8.9 90 -9  1017.5  -0.4  752  313           
00 01.01.12 170 (Ю) 4000 м  слаб. снег  10/10 240 м 
[Frnb|Ns]
-7.5 -8.7 91 -7  1017.9  0.4  752  313           
03 01.01.12 160 (Ю) 4000 м  слаб. снег  10/10 300 м 
[Ns]
-7.5 -8.6 92 -7  1018.5  0.6  753  313        44  равномерный
сухой снег
100% 
06 01.01.12 150 (ЮВ) 10 км  слаб. снег  10/10 1080 м 
[Sc]
-7.1 -8.2 92 -7  1019.4  753  312  -7.8       
Время (UTC), дата Ветер
(°,м/с) 
Видим.   Явления Облачность Т
(°С)
Тd
(°С)
f(%) Тe
(°С)
Pmin
(гПа)
dP
(гПа)
Po
(мм)
O2
(г/м3)
Тmin Tmax R s Состояние
почвы